******** Week 148 almanac for PRN-1 ******** ID: 1 Health: 0 Eccentricity: 0.01137065887 Time of Applicability(s): 503808 Orbital Inclination(rad): 0.9866516491 Rate of Right Ascen(r/s): -7.874613723e-09 SQRT(A) (m 1/2): 5153.624512 Right Ascen at Week(rad): -1.788087927 Argument of Perigee(rad): 0.8814468578 Mean Anom(rad): -1.24755257 Af0(s): 0.000342921814 Af1(s/s): -1.091394e-11 week: 148 ******** Week 148 almanac for PRN-2 ******** ID: 2 Health: 0 Eccentricity: 0.02067995071 Time of Applicability(s): 503808 Orbital Inclination(rad): 0.9649961547 Rate of Right Ascen(r/s): -8.034620388e-09 SQRT(A) (m 1/2): 5153.641113 Right Ascen at Week(rad): -1.877307111 Argument of Perigee(rad): -1.444239916 Mean Anom(rad): -1.100376176 Af0(s): -0.0005140058838 Af1(s/s): 0 week: 148 ******** Week 148 almanac for PRN-3 ******** ID: 3 Health: 0 Eccentricity: 0.003889560699 Time of Applicability(s): 503808 Orbital Inclination(rad): 0.9725701848 Rate of Right Ascen(r/s): -7.668890868e-09 SQRT(A) (m 1/2): 5153.639648 Right Ascen at Week(rad): -0.7525853559 Argument of Perigee(rad): 0.9600813495 Mean Anom(rad): -2.403508211 Af0(s): -9.270194092e-05 Af1(s/s): -1.818989e-11 week: 148 ******** Week 148 almanac for PRN-4 ******** ID: 4 Health: 0 Eccentricity: 0.001693725586 Time of Applicability(s): 503808 Orbital Inclination(rad): 0.9614488241 Rate of Right Ascen(r/s): -7.714607058e-09 SQRT(A) (m 1/2): 5153.600098 Right Ascen at Week(rad): 0.328362894 Argument of Perigee(rad): -3.064777893 Mean Anom(rad): 0.5370569356 Af0(s): -0.000149981189 Af1(s/s): 3.637979e-12 week: 148 ******** Week 148 almanac for PRN-5 ******** ID: 5 Health: 0 Eccentricity: 0.005878925323 Time of Applicability(s): 503808 Orbital Inclination(rad): 0.9595493245 Rate of Right Ascen(r/s): -7.817468486e-09 SQRT(A) (m 1/2): 5153.618652 Right Ascen at Week(rad): -0.7929373647 Argument of Perigee(rad): 1.00894478 Mean Anom(rad): 1.405574687 Af0(s): -5.652557373e-05 Af1(s/s): 0 week: 148 ******** Week 148 almanac for PRN-6 ******** ID: 6 Health: 0 Eccentricity: 0.002690315247 Time of Applicability(s): 503808 Orbital Inclination(rad): 0.9860224773 Rate of Right Ascen(r/s): -7.886042771e-09 SQRT(A) (m 1/2): 5153.62207 Right Ascen at Week(rad): -1.796360413 Argument of Perigee(rad): -0.9633717683 Mean Anom(rad): -0.9145427929 Af0(s): 0.0001567642578 Af1(s/s): 1.091394e-11 week: 148 ******** Week 148 almanac for PRN-7 ******** ID: 7 Health: 0 Eccentricity: 0.01553106308 Time of Applicability(s): 503808 Orbital Inclination(rad): 0.9506330611 Rate of Right Ascen(r/s): -7.943188008e-09 SQRT(A) (m 1/2): 5153.631836 Right Ascen at Week(rad): 1.347294278 Argument of Perigee(rad): -2.291892009 Mean Anom(rad): -1.916572675 Af0(s): 0.0002449441528 Af1(s/s): 3.637979e-12 week: 148 ******** Week 148 almanac for PRN-8 ******** ID: 8 Health: 0 Eccentricity: 0.007272720337 Time of Applicability(s): 503808 Orbital Inclination(rad): 0.9650740521 Rate of Right Ascen(r/s): -7.897471818e-09 SQRT(A) (m 1/2): 5153.672852 Right Ascen at Week(rad): -2.867739259 Argument of Perigee(rad): 0.1010318846 Mean Anom(rad): 1.02094773 Af0(s): -4.446678467e-05 Af1(s/s): 0 week: 148 ******** Week 148 almanac for PRN-9 ******** ID: 9 Health: 0 Eccentricity: 0.002260684967 Time of Applicability(s): 503808 Orbital Inclination(rad): 0.954462021 Rate of Right Ascen(r/s): -7.794610391e-09 SQRT(A) (m 1/2): 5153.568848 Right Ascen at Week(rad): 0.2754536645 Argument of Perigee(rad): 1.869875393 Mean Anom(rad): 1.379716849 Af0(s): -0.0002803668457 Af1(s/s): 0 week: 148 ******** Week 148 almanac for PRN-10 ******** ID: 10 Health: 0 Eccentricity: 0.007495880127 Time of Applicability(s): 503808 Orbital Inclination(rad): 0.9723964136 Rate of Right Ascen(r/s): -7.634603726e-09 SQRT(A) (m 1/2): 5153.637207 Right Ascen at Week(rad): -0.7553746843 Argument of Perigee(rad): -2.516876732 Mean Anom(rad): 3.005708397 Af0(s): -0.0002509735474 Af1(s/s): -1.091394e-11 week: 148 ******** Week 148 almanac for PRN-11 ******** ID: 11 Health: 255 Eccentricity: 0.0002703666687 Time of Applicability(s): 503808 Orbital Inclination(rad): 0.9617484297 Rate of Right Ascen(r/s): -8.103194673e-09 SQRT(A) (m 1/2): 5153.719727 Right Ascen at Week(rad): -1.744215178 Argument of Perigee(rad): 2.871970065 Mean Anom(rad): 0.8717643531 Af0(s): -7.310640869e-05 Af1(s/s): 1.455192e-11 week: 148 ******** Week 148 almanac for PRN-12 ******** ID: 12 Health: 0 Eccentricity: 0.008676528931 Time of Applicability(s): 503808 Orbital Inclination(rad): 0.9703531032 Rate of Right Ascen(r/s): -7.623174678e-09 SQRT(A) (m 1/2): 5153.55957 Right Ascen at Week(rad): 2.460247898 Argument of Perigee(rad): 1.246125698 Mean Anom(rad): -2.571022583 Af0(s): -0.0001341540283 Af1(s/s): -7.275958e-12 week: 148 ******** Week 148 almanac for PRN-13 ******** ID: 13 Health: 0 Eccentricity: 0.005800247192 Time of Applicability(s): 503808 Orbital Inclination(rad): 0.9688610672 Rate of Right Ascen(r/s): -7.668890868e-09 SQRT(A) (m 1/2): 5153.621582 Right Ascen at Week(rad): 0.4281881169 Argument of Perigee(rad): 0.9594169741 Mean Anom(rad): 0.4458753348 Af0(s): 0.0002057530884 Af1(s/s): 7.275958e-12 week: 148 ******** Week 148 almanac for PRN-14 ******** ID: 14 Health: 0 Eccentricity: 0.001427650452 Time of Applicability(s): 503808 Orbital Inclination(rad): 0.9537369754 Rate of Right Ascen(r/s): -7.771752296e-09 SQRT(A) (m 1/2): 5153.599609 Right Ascen at Week(rad): 2.429015885 Argument of Perigee(rad): 3.019435952 Mean Anom(rad): -2.506741823 Af0(s): -6.556966553e-05 Af1(s/s): -3.637979e-12 week: 148 ******** Week 148 almanac for PRN-15 ******** ID: 15 Health: 0 Eccentricity: 0.01392936707 Time of Applicability(s): 503808 Orbital Inclination(rad): 0.9303437684 Rate of Right Ascen(r/s): -8.000333246e-09 SQRT(A) (m 1/2): 5153.678223 Right Ascen at Week(rad): 0.1695442004 Argument of Perigee(rad): 1.074478266 Mean Anom(rad): 0.02283481705 Af0(s): -6.707701416e-05 Af1(s/s): 3.637979e-12 week: 148 ******** Week 148 almanac for PRN-16 ******** ID: 16 Health: 0 Eccentricity: 0.01274776459 Time of Applicability(s): 503808 Orbital Inclination(rad): 0.9703171505 Rate of Right Ascen(r/s): -7.611745631e-09 SQRT(A) (m 1/2): 5153.558594 Right Ascen at Week(rad): 2.478866141 Argument of Perigee(rad): 0.7071606494 Mean Anom(rad): 1.858160439 Af0(s): -0.0003700540894 Af1(s/s): -3.637979e-12 week: 148 ******** Week 148 almanac for PRN-17 ******** ID: 17 Health: 0 Eccentricity: 0.01362895966 Time of Applicability(s): 503808 Orbital Inclination(rad): 0.9801681834 Rate of Right Ascen(r/s): -7.783181343e-09 SQRT(A) (m 1/2): 5153.713867 Right Ascen at Week(rad): -2.785937936 Argument of Perigee(rad): -1.499544493 Mean Anom(rad): 0.9286912939 Af0(s): 0.0004537119385 Af1(s/s): 3.637979e-12 week: 148 ******** Week 148 almanac for PRN-18 ******** ID: 18 Health: 0 Eccentricity: 0.002093315124 Time of Applicability(s): 503808 Orbital Inclination(rad): 0.9704369928 Rate of Right Ascen(r/s): -8.034620388e-09 SQRT(A) (m 1/2): 5153.572754 Right Ascen at Week(rad): -1.780213542 Argument of Perigee(rad): 3.108710938 Mean Anom(rad): -1.050219199 Af0(s): 0.0001914332764 Af1(s/s): -7.275958e-12 week: 148 ******** Week 148 almanac for PRN-19 ******** ID: 19 Health: 0 Eccentricity: 0.008965969086 Time of Applicability(s): 503808 Orbital Inclination(rad): 0.9789038477 Rate of Right Ascen(r/s): -7.806039438e-09 SQRT(A) (m 1/2): 5153.640625 Right Ascen at Week(rad): -2.741070121 Argument of Perigee(rad): 2.006879052 Mean Anom(rad): -2.944522562 Af0(s): 9.270194092e-05 Af1(s/s): 3.637979e-12 week: 148 ******** Week 148 almanac for PRN-20 ******** ID: 20 Health: 0 Eccentricity: 0.005174636841 Time of Applicability(s): 503808 Orbital Inclination(rad): 0.9416868372 Rate of Right Ascen(r/s): -8.000333246e-09 SQRT(A) (m 1/2): 5153.695312 Right Ascen at Week(rad): -0.9069084671 Argument of Perigee(rad): 3.128737701 Mean Anom(rad): -0.2259865291 Af0(s): 0.0004084914795 Af1(s/s): 0 week: 148 ******** Week 148 almanac for PRN-21 ******** ID: 21 Health: 0 Eccentricity: 0.02459192276 Time of Applicability(s): 503808 Orbital Inclination(rad): 0.9592497188 Rate of Right Ascen(r/s): -8.080336578e-09 SQRT(A) (m 1/2): 5153.532715 Right Ascen at Week(rad): -1.878915244 Argument of Perigee(rad): -1.007690181 Mean Anom(rad): 1.112178016 Af0(s): 0.0001251099365 Af1(s/s): 0 week: 148 ******** Week 148 almanac for PRN-22 ******** ID: 22 Health: 0 Eccentricity: 0.01287937164 Time of Applicability(s): 503808 Orbital Inclination(rad): 0.9615806506 Rate of Right Ascen(r/s): -7.737465153e-09 SQRT(A) (m 1/2): 5153.601074 Right Ascen at Week(rad): 0.3766600694 Argument of Perigee(rad): -1.87322461 Mean Anom(rad): 0.801849134 Af0(s): 0.0001673156982 Af1(s/s): 7.275958e-12 week: 148 ******** Week 148 almanac for PRN-23 ******** ID: 23 Health: 0 Eccentricity: 0.001973152161 Time of Applicability(s): 503808 Orbital Inclination(rad): 0.9674349444 Rate of Right Ascen(r/s): -7.703178011e-09 SQRT(A) (m 1/2): 5153.657715 Right Ascen at Week(rad): -0.7802134884 Argument of Perigee(rad): 2.955901584 Mean Anom(rad): -1.954584015 Af0(s): 1.507348633e-06 Af1(s/s): -3.637979e-12 week: 148 ******** Week 148 almanac for PRN-24 ******** ID: 24 Health: 0 Eccentricity: 0.0123333931 Time of Applicability(s): 503808 Orbital Inclination(rad): 0.934160744 Rate of Right Ascen(r/s): -8.137481816e-09 SQRT(A) (m 1/2): 5153.629395 Right Ascen at Week(rad): 1.264576536 Argument of Perigee(rad): 0.8071735004 Mean Anom(rad): -0.9508767158 Af0(s): 0.0002170582031 Af1(s/s): 0 week: 148 ******** Week 148 almanac for PRN-25 ******** ID: 25 Health: 0 Eccentricity: 0.01049137115 Time of Applicability(s): 503808 Orbital Inclination(rad): 0.9577277223 Rate of Right Ascen(r/s): -7.760323248e-09 SQRT(A) (m 1/2): 5153.665039 Right Ascen at Week(rad): 2.383574326 Argument of Perigee(rad): 0.9803867461 Mean Anom(rad): -2.82278718 Af0(s): 0.0002245949463 Af1(s/s): 3.637979e-12 week: 148 ******** Week 148 almanac for PRN-26 ******** ID: 26 Health: 0 Eccentricity: 0.00686788559 Time of Applicability(s): 503808 Orbital Inclination(rad): 0.9385409782 Rate of Right Ascen(r/s): -7.920329913e-09 SQRT(A) (m 1/2): 5153.645996 Right Ascen at Week(rad): 2.336649344 Argument of Perigee(rad): 0.3681778597 Mean Anom(rad): 2.808021117 Af0(s): 0.0001439517944 Af1(s/s): 3.637979e-12 week: 148 ******** Week 148 almanac for PRN-27 ******** ID: 27 Health: 0 Eccentricity: 0.01020097733 Time of Applicability(s): 503808 Orbital Inclination(rad): 0.9737686073 Rate of Right Ascen(r/s): -7.828897533e-09 SQRT(A) (m 1/2): 5153.606445 Right Ascen at Week(rad): -2.848352154 Argument of Perigee(rad): 0.6372270795 Mean Anom(rad): 0.974304752 Af0(s): 9.044091797e-05 Af1(s/s): 1.818989e-11 week: 148 ******** Week 148 almanac for PRN-29 ******** ID: 29 Health: 0 Eccentricity: 0.001823425293 Time of Applicability(s): 503808 Orbital Inclination(rad): 0.9821755411 Rate of Right Ascen(r/s): -7.771752296e-09 SQRT(A) (m 1/2): 5153.710449 Right Ascen at Week(rad): -2.772939171 Argument of Perigee(rad): 2.261585402 Mean Anom(rad): 1.09584951 Af0(s): -0.0003783445068 Af1(s/s): -3.637979e-12 week: 148 ******** Week 148 almanac for PRN-30 ******** ID: 30 Health: 0 Eccentricity: 0.005501747131 Time of Applicability(s): 503808 Orbital Inclination(rad): 0.9358025828 Rate of Right Ascen(r/s): -8.114623721e-09 SQRT(A) (m 1/2): 5153.514648 Right Ascen at Week(rad): 1.360489284 Argument of Perigee(rad): -2.746034961 Mean Anom(rad): -1.881768239 Af0(s): -0.0004054767822 Af1(s/s): -3.637979e-12 week: 148 ******** Week 148 almanac for PRN-31 ******** ID: 31 Health: 0 Eccentricity: 0.01045513153 Time of Applicability(s): 503808 Orbital Inclination(rad): 0.9548634925 Rate of Right Ascen(r/s): -7.920329913e-09 SQRT(A) (m 1/2): 5153.625977 Right Ascen at Week(rad): 1.365379971 Argument of Perigee(rad): 0.3751586707 Mean Anom(rad): -2.369651278 Af0(s): -0.0001296319824 Af1(s/s): 0 week: 148 ******** Week 148 almanac for PRN-32 ******** ID: 32 Health: 0 Eccentricity: 0.005556106567 Time of Applicability(s): 503808 Orbital Inclination(rad): 0.9583209414 Rate of Right Ascen(r/s): -7.760323248e-09 SQRT(A) (m 1/2): 5153.719238 Right Ascen at Week(rad): 0.2866386914 Argument of Perigee(rad): -2.356217336 Mean Anom(rad): 1.623413067 Af0(s): -5.200352783e-05 Af1(s/s): -7.275958e-12 week: 148